sat.trackr.live / text

‹ back to catalog

SHIYAN-10 02 (SY-10 02)

NORAD 54878 · 2022-178A

PAYLOAD ACTIVE UNKNOWN

§ Identity

Operator
Country
PRC
Launch date
2022-12-29
Launch site
XICLF
Launch vehicle
Mass (kg)
RCS (m²)

External: N2YO · Heavens-Above · Gunter

§ Orbital elements

Epoch: 2026-09-13T21:08:35.767392Z

Period
717.65 min
Inclination
64.0134°
Eccentricity
0.6904856
Mean motion
2.00653885 rev/d
Perigee alt
1,840.2 km
Apogee alt
38,508.3 km
Semi-major
26,552.4 km
B*
0.0000e+0
RAAN
310.3824°
Arg perigee
267.6534°
Mean anomaly
18.6662°
Rev number
1,833

§ Raw data

SHIYAN-10 02 (SY-10 02)1 54878U 22178A   26256.88096953  .00000837  00000+0  00000+0 0  99972 54878  64.0134 310.3824 6904856 267.6534  18.6662  2.00653885 18335

JSON: /api/v1/satellites/54878 · /tle

For live sub-satellite position, see the globe view (requires WebGL).

§ Visibility from observer

Set your observer location to see the next 7 days of passes ≥ 10°. The values pass through the URL so the page stays shareable.

No JS? Fill the form by hand. The geolocation button needs JavaScript.